Regional Weather Roundup
Issued by NWS

Home | Current Version | Previous Version | Text Only | Print | Product List | Glossary On
Versions: 1 2 3 4 5 6 7 8 9 10 11 12 13 14 15 16 17 18 19 20 21 22 23 24 25 26 27 28 29 30 31 32 33 34 35 36 37 38 39 40 41 42 43 44 45 46 47 48 49 50
000
ASUS43 KLMK 260710
RWRKY
NATIONAL WEATHER SERVICE LOUISVILLE KY
200 AM EST WED NOV 26 2014

NOTE "FAIR" INDICATES FEW OR NO CLOUDS BELOW 12,000 FEET
WITH NO SIGNIFICANT WEATHER AND/OR OBSTRUCTIONS TO VISIBILITY.

KYZ001>023-026-027-061>063-070>075-260800-
WESTERN AND SOUTH CENTRAL KENTUCKY

CITY           SKY/WX    TMP DP  RH WIND       PRES   REMARKS
PADUCAH        CLEAR     26  23  88 CALM      30.15F FOG
HENDERSON      CLEAR     28  25  86 NE7       30.16F WCI  21
OWENSBORO      CLEAR     29  26  88 MISG      30.17F
HOPKINSVILLE   CLEAR     30  28  94 N5        30.14F WCI  25
BOWLING GREEN  CLEAR     33  26  75 NW3       30.14F
GLASGOW        PTCLDY    29  26  88 CALM      30.12F
$$

KYZ024-025-028>034-038-045-046-053-260800-
NORTH CENTRAL KENTUCKY

CITY           SKY/WX    TMP DP  RH WIND       PRES   REMARKS
LOUISVILLE/SDF CLEAR     30  25  81 N6        30.15F WCI  24
LOUISVILLE/LOU CLEAR     30  25  81 N3        30.15F
FORT KNOX      CLEAR     25  23  93 NW2       30.11F
$$

KYZ035>037-039>044-047>052-055>060-089>105-260800-
NORTHEAST KENTUCKY

CITY           SKY/WX    TMP DP  RH WIND       PRES   REMARKS
LEXINGTON      CLOUDY    33  29  85 N8        30.12F WCI  26
COVINGTON      PTCLDY    29  23  78 N5        30.15S WCI  24
FRANKFORT      PTCLDY    31  27  85 N5        30.13F WCI  26
$$

KYZ054-064>069-076>088-106>120-260800-
SOUTHEAST KENTUCKY

CITY           SKY/WX    TMP DP  RH WIND       PRES   REMARKS
JACKSON        CLOUDY    38  28  67 VRB5      30.06F WCI  34
LONDON         CLOUDY    40  27  59 N7        30.06F
SOMERSET       CLOUDY    36  28  75 N5        30.09F WCI  32
MIDDLESBORO    NOT AVBL
MONTICELLO     CLOUDY    39  29  68 CALM      30.12F
$$



USA.gov is the U.S. government's official web portal to all federal, state and local government web resources and services.